Weather History for El Paso, TX

Change the Weather History Date:

Tuesday, March 19, 2013

  Actual Average Record
Temperature  
Mean Temperature 64 °F 57 °F  
Max Temperature 78 °F 71 °F 92 °F (1907)
Min Temperature 49 °F 43 °F 22 °F (1988)
Degree Days  
Heating Degree Days 1 8  
Month to date heating degree days 119 190  
Since 1 July heating degree days 2084 2293  
Cooling Degree Days 0 0  
Month to date cooling degree days 16 0  
Year to date cooling degree days 16 0  
Growing Degree Days 13 (Base 50)    
Moisture  
Dew Point 15 °F    
Average Humidity 16    
Maximum Humidity 23    
Minimum Humidity 9    
Precipitation  
Precipitation 0.00 in 0.01 in 0.25 in (1961)
Month to date precipitation T 0.17  
Year to date precipitation 0.71 1.03  
Snow  
Snow 0.00 in - - ()
Month to date snowfall 0.0  
Since 1 July snowfall 3.1  
Snow Depth 0.00 in    
Sea Level Pressure  
Sea Level Pressure 29.86 in    
Wind  
Wind Speed 11 mph (West)    
Max Wind Speed 26 mph    
Max Gust Speed 31 mph    
Visibility 10 miles    
Events      
T = Trace of Precipitation, MM = Missing Value Source: NWS Daily Summary

Daily Weather History Graph

Daily Weather History Graph

Search for Another Location

Airport:

Trip Planner

Search our weather history database for the weather conditions in past years. The results will help you decide how hot, cold, wet, or windy it might be!

Date:

Astronomy

Mar. 19, 2013 Rise Set
Actual Time 7:10 AM MDT 7:16 PM MDT
Civil Twilight 6:45 AM MDT 7:40 PM MDT
Nautical Twilight 6:17 AM MDT 8:09 PM MDT
Astronomical Twilight 5:48 AM MDT 8:37 PM MDT
Moon 12:22 PM MDT (3/19) 1:46 AM MDT (3/19)
Length of Visible Light 12h 55m
Length of Day
12h 06m
Waxing Crescent, 50% of the Moon is Illuminated
Mar 19
Waxing Crescent
Mar 27
Full
Apr 2
Last Quarter
Apr 10
New
Apr 18
First Quarter

Hourly Weather History & Observations

Time (MDT) Temp. Dew Point Humidity Pressure Visibility Wind Dir Wind Speed Gust Speed Precip Events Conditions
12:51 AM 59.0 °F 10.0 °F 14% 29.83 in 10.0 mi East 3.5 mph - N/A   Scattered Clouds
1:51 AM 59.0 °F 12.0 °F 16% 29.83 in 10.0 mi SSE 6.9 mph - N/A   Mostly Cloudy
2:51 AM 60.1 °F 10.0 °F 14% 29.82 in 10.0 mi South 3.5 mph - N/A   Partly Cloudy
3:51 AM 55.9 °F 10.9 °F 17% 29.82 in 10.0 mi South 4.6 mph - N/A   Partly Cloudy
4:51 AM 55.9 °F 10.9 °F 17% 29.82 in 10.0 mi WSW 4.6 mph - N/A   Scattered Clouds
5:51 AM 48.9 °F 12.9 °F 24% 29.85 in 10.0 mi ESE 6.9 mph - N/A   Scattered Clouds
6:51 AM 50.0 °F 14.0 °F 24% 29.86 in 10.0 mi SE 8.1 mph - N/A   Scattered Clouds
7:51 AM 50.0 °F 14.0 °F 24% 29.88 in 10.0 mi SE 4.6 mph - N/A   Scattered Clouds
8:51 AM 61.0 °F 14.0 °F 16% 29.88 in 10.0 mi SW 11.5 mph - N/A   Mostly Cloudy
9:51 AM 64.9 °F 15.1 °F 15% 29.88 in 10.0 mi SW 12.7 mph - N/A   Mostly Cloudy
10:51 AM 69.1 °F 15.1 °F 13% 29.88 in 10.0 mi SW 11.5 mph - N/A   Mostly Cloudy
11:51 AM 69.1 °F 16.0 °F 13% 29.87 in 10.0 mi WNW 9.2 mph - N/A   Mostly Cloudy
12:51 PM 70.0 °F 17.1 °F 13% 29.87 in 10.0 mi West 16.1 mph 23.0 mph N/A   Mostly Cloudy
1:51 PM 72.0 °F 17.1 °F 12% 29.84 in 10.0 mi WNW 5.8 mph 19.6 mph N/A   Mostly Cloudy
2:51 PM 75.9 °F 15.1 °F 10% 29.80 in 10.0 mi WNW 16.1 mph 24.2 mph N/A   Mostly Cloudy
3:51 PM 75.9 °F 15.1 °F 10% 29.78 in 10.0 mi WNW 17.3 mph 21.9 mph N/A   Scattered Clouds
4:51 PM 77.0 °F 14.0 °F 9% 29.78 in 10.0 mi WNW 20.7 mph 31.1 mph N/A   Scattered Clouds
5:51 PM 75.2 °F 15.8 °F 11% 29.95 in 10.0 mi WNW 18.4 mph 28.8 mph N/A   Partly Cloudy
6:51 PM 73.0 °F 16.0 °F 11% 29.82 in 10.0 mi WNW 18.4 mph 24.2 mph N/A   Scattered Clouds
7:51 PM 71.1 °F 16.0 °F 12% 29.85 in 10.0 mi NW 12.7 mph - N/A   Scattered Clouds
8:51 PM 70.0 °F 17.1 °F 13% 29.86 in 10.0 mi WNW 12.7 mph - N/A   Clear
9:51 PM 68.0 °F 16.0 °F 14% 29.89 in 10.0 mi North 15.0 mph - N/A   Partly Cloudy
10:51 PM 63.0 °F 16.0 °F 16% 29.93 in 10.0 mi NNE 16.1 mph - N/A   Partly Cloudy
11:51 PM 59.0 °F 19.0 °F 21% 29.98 in 10.0 mi Calm Calm - N/A   Partly Cloudy